Regional Weather Roundup
Issued by NWS

Home | Current Version | Previous Version | Text Only | Print | Product List | Glossary Off
Versions: 1 2 3 4 5 6 7 8 9 10 11 12 13 14 15 16 17 18 19 20 21 22 23 24 25 26 27 28

000
ASUS45 KCYS 261310
RWRWY

WYOMING REGIONAL WEATHER ROUNDUP
NATIONAL WEATHER SERVICE CHEYENNE WY
700 AM MDT SAT MAY 26 2018

NOTE:  "FAIR" INDICATES FEW OR NO CLOUDS BELOW 12,000 FEET
WITH NO SIGNIFICANT WEATHER AND/OR OBSTRUCTIONS TO VISIBILITY.

WYZ001-261400-
YELLOWSTONE NATIONAL PARK

CITY           SKY/WX    TMP DP  RH WIND       PRES   REMARKS
LK YELLOWSTONE   N/A     36  34  92 CALM      30.07S
W YELLOWSTONE  NOT AVBL

$$
WYZ002>013-054>058-071-098>099-261400-
NORTHERN WYOMING

CITY           SKY/WX    TMP DP  RH WIND       PRES   REMARKS
JACKSON        FAIR      43  39  86 CALM      30.00R
CODY           FAIR      60  45  57 SW7       29.88R
GREYBULL       FAIR      55  51  86 CALM      29.80R
WORLAND        FAIR      56  52  86 SW3       29.81R
SHERIDAN       FAIR      55  52  89 CALM      29.81S
BUFFALO        FAIR      61  49  64 CALM      29.87F
GILLETTE       FAIR      64  54  69 S12       29.85S
NEWCASTLE      FAIR      64  46  52 SE12      29.88F

$$
WYZ014>020-022>026-101>103-261400-
CENTRAL WYOMING

CITY           SKY/WX    TMP DP  RH WIND       PRES   REMARKS
BIG PINEY      FAIR      44  37  76 CALM      30.01S
PINEDALE       FAIR      43  36  75 CALM      30.03R
DUBOIS         FAIR      45  34  65 W9        30.00S
LANDER         FAIR      56  42  59 W5        29.89R
RIVERTON       FAIR      55  49  80 W6        29.89R
CASPER         FAIR      51  48  89 CALM      29.91S
DOUGLAS        FAIR      57  54  89 S6        29.92R

$$
WYZ021-027>030-104>119-261400-
SOUTHERN WYOMING

CITY           SKY/WX    TMP DP  RH WIND       PRES   REMARKS
EVANSTON       FAIR      53  29  39 S6        30.00S
FORT BRIDGER   FAIR      56  26  31 W8        30.03R
ROCK SPRINGS   FAIR      55  16  21 S10       29.99S
DIXON          FAIR      47  27  45 SE3       30.06R
RAWLINS        FAIR      54  28  36 CALM      30.04R
SARATOGA       FAIR      52  30  43 SE12      30.07S
LARAMIE        FAIR      47  36  65 S3        30.09R
CHEYENNE       FAIR      54  43  66 W9        30.01R
TORRINGTON     FAIR      59  55  87 E12       29.88F
PINE BLUFFS    FAIR      59  50  72 NW9       29.97R

$$




USA.gov is the U.S. government's official web portal to all federal, state and local government web resources and services.